Home   Weather   Berkeley   Past weeks

Flag for USA Past Weather in Berkeley, California, USA — Yesterday and Last 2 Weeks

64 °F

Mostly cloudy.

Feels Like: 64 °F
Forecast: 61 / 65 °F
Wind: 3 mph from South

Location: Metro Oakland International Airport

Current Time: Oct 28, 2016 at 10:57:13 AM

Latest Report: Oct 28, 2016 at 9:53 AM

Visibility: 10 mi

Pressure: 29.88 "Hg

Humidity: 97%

Dew Point: 63 °F

Location of BerkeleyLocation

Past Weather in Berkeley — Graph


Berkeley Temperature Yesterday

Maximum temperature yesterday: 72 °F (at 12:53 PM)
Minimum temperature yesterday: 60 °F (at 1:53 AM)
Average temperature yesterday: 63 °F

High & Low Weather Summary for the Past Weeks

High75 °F (Oct 20, 3:53 PM)100% (Oct 28, 7:53 AM)30.21 "Hg (Oct 28, 7:53 AM)
Low50 °F (Oct 19, 6:53 AM)36% (Oct 19, 2:53 PM)29.75 "Hg (Oct 16, 2:53 PM)
Average63 °F77%29.98 "Hg
* Reported Oct 13 9:53 AM — Oct 28 9:53 AM, Berkeley, Weather by CustomWeather, © 2016

Note: Actual official high and low records may vary slightly from our data, if they occured in-between our weather recording intervals... More about our weather records


Berkeley Weather History for the Previous 24 Hours

Scroll right to see more
Time TempWeatherWind HumidityBarometerVisibility
9:53 AM
Fri, Oct 28
64 °FMostly cloudy.3 mph97%29.88 "Hg10 mi
8:53 AM64 °FCloudy.No wind97%29.88 "Hg10 mi
7:53 AM63 °FLight rain. Cloudy.No wind100%29.86 "Hg8 mi
6:53 AM64 °FLight rain. Fog.No wind97%29.85 "Hg3 mi
5:53 AM63 °FLight rain. Fog.5 mph97%29.85 "Hg5 mi
4:53 AM64 °FLight rain. Fog.3 mph94%29.85 "Hg5 mi
3:53 AM63 °FLight rain. Fog.No wind97%29.86 "Hg6 mi
2:53 AM63 °FLight rain. Fog.5 mph97%29.87 "Hg6 mi
1:53 AM63 °FLight rain. Fog.No wind93%29.89 "Hg5 mi
12:53 AM63 °FLight rain. Overcast.No wind97%29.90 "Hg7 mi
11:53 PM
Thu, Oct 27
63 °FLight rain. Mostly cloudy.6 mph93%29.90 "Hg8 mi
10:53 PM62 °FRain. Fog.6 mph96%29.91 "Hg6 mi
9:53 PM62 °FLight rain. Mostly cloudy.7 mph96%29.92 "Hg9 mi
8:53 PM62 °FLight rain. Overcast.6 mph96%29.92 "Hg7 mi
7:53 PM62 °FLight rain. Fog.3 mph93%29.95 "Hg3 mi
6:53 PM63 °FLight rain. Mostly cloudy.No wind93%29.93 "Hg8 mi
5:53 PM62 °FMostly cloudy.8 mph93%29.91 "Hg10 mi
4:53 PM64 °FLight rain. Cloudy.3 mph84%29.95 "Hg2 mi
3:53 PM66 °FMostly cloudy.No wind84%29.93 "Hg10 mi
2:53 PM65 °FLight rain. Mostly cloudy.7 mph85%29.94 "Hg10 mi
1:53 PM66 °FLight rain. Overcast.6 mph75%29.95 "Hg10 mi
12:53 PM72 °FOvercast.5 mph64%29.95 "Hg10 mi
11:53 AM67 °FOvercast.6 mph66%29.96 "Hg10 mi
10:53 AM66 °FOvercast.No wind73%29.97 "Hg10 mi
Weather by CustomWeather, © 2016

See weather overviewHow to use our weather pages